San Carlos, CA

6:04 AM PST on November 20, 2017 (GMT -0800)
San Carlos

Weather History for KSQL - May, 2014

Change the Weather History Date:

Friday, May 16, 2014

  Actual Average Record
Temperature  
Mean Temperature 68 °F -  
Max Temperature 80 °F 77 °F 96 °F (1970)
Min Temperature 55 °F 48 °F 40 °F (1955)
Cooling Degree Days 2    
Growing Degree Days 18 (Base 50)    
Moisture  
Dew Point 47 °F    
Average Humidity 60    
Maximum Humidity 82    
Minimum Humidity 28    
Precipitation  
Precipitation 0.00 in - - ()
Sea Level Pressure  
Sea Level Pressure 30.07 in    
Wind  
Wind Speed 5 mph (WNW)    
Max Wind Speed 15 mph    
Max Gust Speed 20 mph    
Visibility 10 miles    
Events      
Averages and records for this station are not official NWS values.
T = Trace of Precipitation, MM = Missing Value Source: NWS Daily Summary

Daily Weather History Graph

Daily Weather History Graph

Search for Another Location

Airport or City:

Trip Planner

Search our weather history database for the weather conditions in past years. The results will help you decide how hot, cold, wet, or windy it might be!

Date:

Astronomy

May. 16, 2014 Rise Set
Actual Time 5:58 AM PDT 8:12 PM PDT
Civil Twilight 5:29 AM PDT 8:41 PM PDT
Nautical Twilight 4:53 AM PDT 9:17 PM PDT
Astronomical Twilight 4:14 AM PDT 9:57 PM PDT
Moon 10:24 PM PDT (5/16) 7:45 AM PDT (5/16)
Length of Visible Light 15h 12m
Length of Day
14h 13m
Waning Gibbous, 95% of the Moon is Illuminated
May 16
Waning Gibbous
May 21
Last Quarter
May 28
New
Jun 5
First Quarter
Jun 12
Full

Hourly Weather History & Observations

Time (PDT) Temp. Dew Point Humidity Pressure Visibility Wind Dir Wind Speed Gust Speed Precip Events Conditions
12:15 AM 64.4 °F 44.6 °F 49% 30.10 in 10.0 mi NW 4.6 mph - N/A   Clear
12:35 AM 62.6 °F 44.6 °F 52% 30.10 in 10.0 mi NW 3.5 mph - N/A   Clear
12:55 AM 62.6 °F 44.6 °F 52% 30.09 in 10.0 mi Calm Calm - N/A   Clear
1:15 AM 62.6 °F 44.6 °F 52% 30.10 in 10.0 mi NW 3.5 mph - N/A   Clear
1:35 AM 60.8 °F 41.0 °F 48% 30.09 in 10.0 mi West 3.5 mph - N/A   Clear
1:55 AM 60.8 °F 41.0 °F 48% 30.08 in 10.0 mi Calm Calm - N/A   Clear
2:15 AM 59.0 °F 46.4 °F 63% 30.08 in 10.0 mi NW 5.8 mph - N/A   Clear
2:35 AM 59.0 °F 48.2 °F 67% 30.07 in 10.0 mi NW 3.5 mph - N/A   Clear
2:55 AM 59.0 °F 44.6 °F 59% 30.07 in 10.0 mi NW 6.9 mph - N/A   Clear
3:15 AM 57.2 °F 44.6 °F 63% 30.07 in 10.0 mi NW 8.1 mph - N/A   Clear
3:35 AM 57.2 °F 42.8 °F 59% 30.07 in 10.0 mi WNW 6.9 mph - N/A   Clear
3:55 AM 57.2 °F 41.0 °F 55% 30.07 in 10.0 mi WNW 5.8 mph - N/A   Clear
4:15 AM 59.0 °F 41.0 °F 51% 30.07 in 10.0 mi West 5.8 mph - N/A   Clear
4:35 AM 59.0 °F 41.0 °F 51% 30.07 in 10.0 mi West 6.9 mph - N/A   Clear
4:55 AM 57.2 °F 41.0 °F 55% 30.07 in 10.0 mi Calm Calm - N/A   Clear
5:15 AM 57.2 °F 41.0 °F 55% 30.07 in 10.0 mi SSE 3.5 mph - N/A   Clear
5:35 AM 55.4 °F 42.8 °F 63% 30.07 in 10.0 mi Calm Calm - N/A   Clear
5:55 AM 55.4 °F 41.0 °F 58% 30.08 in 10.0 mi Calm Calm - N/A   Clear
6:15 AM 57.2 °F 42.8 °F 59% 30.08 in 10.0 mi Calm Calm - N/A   Clear
6:35 AM 57.2 °F 44.6 °F 63% 30.08 in 10.0 mi Calm Calm - N/A   Clear
6:48 AM 55.4 °F 41.0 °F 58% 30.09 in 10.0 mi Calm Calm - N/A   Mostly Cloudy
6:55 AM 55.4 °F 41.0 °F 58% 30.09 in 10.0 mi Calm Calm - N/A   Clear
7:51 AM 59.0 °F 46.4 °F 63% 30.09 in 10.0 mi South 3.5 mph - N/A   Mostly Cloudy
8:47 AM 60.8 °F 51.8 °F 72% 30.09 in 10.0 mi ENE 3.5 mph - N/A   Mostly Cloudy
9:54 AM 64.4 °F 53.6 °F 68% 30.09 in 10.0 mi Calm Calm - N/A   Mostly Cloudy
10:47 AM 64.4 °F 53.6 °F 68% 30.10 in 10.0 mi NE 5.8 mph - N/A   Mostly Cloudy
11:58 AM 68.0 °F 55.4 °F 64% 30.08 in 10.0 mi North 11.5 mph - N/A   Mostly Cloudy
1:48 PM 73.4 °F 55.4 °F 53% 30.06 in 10.0 mi North 12.7 mph - N/A   Scattered Clouds
2:50 PM 77.0 °F 48.2 °F 36% 30.05 in 10.0 mi West 9.2 mph - N/A   Scattered Clouds
3:49 PM 80.6 °F 44.6 °F 28% 30.04 in 10.0 mi West 11.5 mph - N/A   Scattered Clouds
4:48 PM 73.4 °F 44.6 °F 36% 30.04 in 10.0 mi West 11.5 mph - N/A   Partly Cloudy
5:52 PM 69.8 °F 48.2 °F 46% 30.02 in 10.0 mi West 13.8 mph - N/A   Partly Cloudy
6:47 PM 68.0 °F 48.2 °F 49% 30.01 in 10.0 mi West 13.8 mph - N/A   Partly Cloudy
7:47 PM 62.6 °F 50.0 °F 63% 30.02 in 10.0 mi West 15.0 mph 19.6 mph N/A   Scattered Clouds
8:55 PM 59.0 °F 50.0 °F 72% 30.04 in 10.0 mi WSW 10.4 mph - N/A   Scattered Clouds
9:15 PM 59.0 °F 50.0 °F 72% 30.04 in 10.0 mi WSW 9.2 mph - N/A   Clear
9:35 PM 59.0 °F 50.0 °F 72% 30.04 in 10.0 mi WSW 5.8 mph - N/A   Clear
9:55 PM 59.0 °F 50.0 °F 72% 30.05 in 10.0 mi West 5.8 mph - N/A   Clear
10:15 PM 57.2 °F 50.0 °F 77% 30.05 in 10.0 mi West 6.9 mph - N/A   Clear
10:35 PM 57.2 °F 50.0 °F 77% 30.04 in 10.0 mi WSW 5.8 mph - N/A   Clear
10:55 PM 57.2 °F 50.0 °F 77% 30.04 in 10.0 mi West 6.9 mph - N/A   Clear
11:15 PM 57.2 °F 50.0 °F 77% 30.04 in 10.0 mi West 6.9 mph - N/A   Clear
11:35 PM 57.2 °F 51.8 °F 82% 30.04 in 10.0 mi West 6.9 mph - N/A   Partly Cloudy
11:55 PM 57.2 °F 51.8 °F 82% 30.04 in 10.0 mi West 8.1 mph - N/A   Clear